This is the latest recevied weather packets stored in our database for station/object KC4LZN. If no packets are shown the sender has not sent any weather packets the latest 1 day(s).
| Time | Temp. | Humidity | Pressure | Rain* | Wind** | Luminosity | Snow |
|---|---|---|---|---|---|---|---|
| 1778038676 | 18.89° C | 80% | 1017.4 hPa | 0 mm | 0 m/s | 0 W/m² | - |
| 1778038373 | 18.89° C | 79% | 1017.2 hPa | 0 mm | 0 m/s | 0 W/m² | - |
| 1778038070 | 18.89° C | 79% | 1017.3 hPa | 0 mm | 0 m/s | 0 W/m² | - |
| 1778037767 | 18.89° C | 79% | 1017.2 hPa | 0 mm | 0 m/s | 0 W/m² | - |
| 1778037463 | 18.89° C | 82% | 1017.5 hPa | 0 mm | 0 m/s | 0 W/m² | - |
| 1778037161 | 19.44° C | 82% | 1017.4 hPa | 0 mm | 0 m/s | 0 W/m² | - |
| 1778036859 | 20° C | 80% | 1017.4 hPa | 0 mm | 0 m/s | 0 W/m² | - |
| 1778036556 | 19.44° C | 76% | 1017.2 hPa | 0 mm | 0 m/s | 0 W/m² | - |
| 1778036253 | 20.56° C | 76% | 1017.3 hPa | 0 mm | 0 m/s | 0 W/m² | - |
| 1778035949 | 20.56° C | 74% | 1017.2 hPa | 0 mm | 0 m/s | 0 W/m² | - |
| 1778035646 | 20.56° C | 73% | 1017.1 hPa | 0 mm | 0 m/s | 0 W/m² | - |
| 1778035343 | 20.56° C | 71% | 1017.2 hPa | 0 mm | 0 m/s | 0 W/m² | - |
| 1778035039 | 20.56° C | 69% | 1017.2 hPa | 0 mm | 0 m/s | 0 W/m² | - |
| 1778034736 | 21.11° C | 68% | 1017.1 hPa | 0 mm | 0.45 m/s, 206° | 0 W/m² | - |
| 1778034433 | 21.67° C | 67% | 1016.9 hPa | 0 mm | 0.45 m/s, 332° | 0 W/m² | - |
| 1778034131 | 21.67° C | 66% | 1017.2 hPa | 0 mm | 0 m/s | 0 W/m² | - |
| 1778033829 | 21.67° C | 66% | 1017.2 hPa | 0 mm | 0.45 m/s, 242° | 0 W/m² | - |
| 1778033526 | 21.67° C | 66% | 1016.9 hPa | 0 mm | 0 m/s | 0 W/m² | - |
| 1778033222 | 22.22° C | 65% | 1017 hPa | 0 mm | 0.45 m/s, 134° | 0 W/m² | - |
| 1778032920 | 22.22° C | 65% | 1016.9 hPa | 0 mm | 0 m/s | 0 W/m² | - |
| 1778032617 | 22.22° C | 64% | 1017 hPa | 0 mm | 0.45 m/s, 154° | 0 W/m² | - |
| 1778032315 | 22.22° C | 64% | 1017.1 hPa | 0 mm | 0 m/s | 0 W/m² | - |
| 1778032012 | 22.22° C | 64% | 1016.9 hPa | 0 mm | 0.89 m/s, 42° | 0 W/m² | - |
| 1778031708 | 22.78° C | 63% | 1016.7 hPa | 0 mm | 0 m/s | 0 W/m² | - |
| 1778031406 | 22.78° C | 63% | 1016.7 hPa | 0 mm | 0.89 m/s, 78° | 0 W/m² | - |
* Rain latest hour (hover to see other rain measurements)
** Current wind speed in m/s (hover to see current wind gust speed)